Location: Kaarina
(60.4167°N, 22.4167°E)
Time: 08:54:06
(UTC+03:00)

NOSS 2-2 (D) - Pass Details

Date: 24 August 2019
Orbit: 492 x 1716 km, 63.3° (Epoch: 08 September)

Event Time Altitude Azimuth Distance (km) Brightness Sun altitude
Rises 21:42:11 0° 268° (W) 2,739 7.9 -5.4°
Reaches altitude 10° 21:44:11 10° 272° (W) 1,933 7.1 -5.6°
Maximum altitude 21:48:27 63° 355° (N) 783 4.3 -6.0°
Drops below altitude 10° 21:54:05 10° 77° (ENE) 2,541 6.3 -6.6°
Sets 21:57:03 0° 80° (E) 3,692 7.1 -6.9°
